[[{"header":{"parameterUnit":"m.s-1","parameterCategory":1,"la1":30.2991,"la2":30.254,"lo1":-89.0895,"lo2":-89.0444,"dy":0.0017,"dx":0.0017,"nx":28,"ny":28,"refTime":"2026-01-02T03:00:00:Z","depth":0,"parameterNumber":2,"parameterNumberName":"U-component_of_WINDS"},"data":[0,0,0,0,0,0,0,0,0,0,0,0,0,0,0,0,0,0,0,0,0,0,0,0,0,0,0,0,0,0,0,0,0,0,0,0,0,0,0,0,0,0,0,0,0,0,0,0,0,0,0,0,0,0,0,0,0,0,2.2235,2.2234,0,2.2178,2.2177,2.2176,2.218,2.2181,2.2182,2.2183,2.2124,2.2122,2.2119,0,0,0,0,0,0,0,0,0,0,0,0,0,2.235,2.2348,2.2235,2.2234,2.2234,2.2178,2.2177,2.2176,2.218,2.2181,2.2182,2.2183,2.2125,2.2122,2.2119,0,0,0,0,0,0,0,0,0,0,0,0,0,2.2297,2.2347,2.2235,2.2229,2.2228,2.2178,2.2177,2.2176,2.218,2.2181,2.2182,2.2183,2.2125,2.2122,2.2119,2.2071,0,0,2.2108,2.2106,0,0,0,0,0,0,0,0,2.23,2.2293,2.2231,2.2229,2.2228,2.2187,2.2196,2.2141,2.2179,2.2198,2.2183,2.2184,2.2144,2.2139,2.2125,2.2069,2.2066,2.2107,2.2105,2.2104,2.2103,0,0,0,0,0,0,0,2.2304,2.2295,2.2212,2.223,2.2228,2.223,2.2223,2.2186,2.2165,2.2196,2.2197,2.219,2.2143,2.2129,2.2124,2.2065,2.2108,2.2104,2.2102,2.2101,2.1971,2.197,0,0,0,0,0,0,2.2309,2.2298,2.2214,2.2211,2.2268,2.2226,2.222,2.2199,2.2165,2.2161,2.2189,2.219,2.2134,2.2128,2.2122,2.2067,2.2104,2.2101,2.2099,2.1972,2.1971,2.1969,0,0,0,0,0,0,2.2311,2.2301,2.2217,2.2255,2.2244,2.2223,2.22,2.2197,2.2183,2.2159,2.2156,2.2178,2.2135,2.2127,2.2085,2.2065,2.2099,2.2096,2.1974,2.1972,2.197,2.1955,0,0,0,0,0,0,2.2315,2.2302,2.2283,2.2254,2.2242,2.218,2.2199,2.2195,2.2177,2.2178,2.2148,2.2144,2.2135,2.209,2.2081,2.2061,2.2093,2.1975,2.1973,2.197,2.1958,2.1953,2.1949,0,0,0,0,0,2.2319,2.2281,2.2282,2.2272,2.2218,2.2178,2.2171,2.2162,2.2175,2.2157,2.2142,2.2145,2.2068,2.2086,2.2076,2.2054,2.1977,2.1974,2.1971,2.1959,2.1954,2.1949,0,0,0,0,0,0,2.2307,2.2277,2.2278,2.2229,2.2207,2.2179,2.2155,2.2156,2.2129,2.2132,2.2122,2.2115,2.2073,2.2059,2.2079,2.2008,2.2024,2.2019,2.2019,2.2014,2.201,2.2015,2.209,0,0,0,0,0,2.2299,2.2269,2.2244,2.2204,2.2192,2.2176,2.2158,2.2154,2.2129,2.212,2.2102,2.2079,2.205,2.2031,2.2003,2.1955,2.195,2.1936,2.1932,2.1928,2.1924,2.1902,2.1896,2.1959,2.1959,2.1959,0,0,2.2281,2.2261,2.2243,2.2201,2.2183,2.2153,2.2168,2.2135,2.2113,2.2115,2.2075,2.2061,2.2034,2.1991,2.197,2.1977,2.1906,2.1925,2.1922,2.192,2.1898,2.1892,2.1887,2.1957,2.1958,2.1958,0,0,2.2235,2.2216,2.2182,2.2164,2.2137,2.2126,2.2118,2.2091,2.2083,2.2042,2.2044,2.2018,2.1967,2.195,2.1934,2.1884,2.1887,2.1876,2.1854,2.1832,2.1827,2.1823,2.1807,2.1802,2.1871,2.1871,2.1871,0,2.2217,2.2172,2.2164,2.2132,2.2115,2.2116,2.2082,2.2065,2.2029,2.2018,2.2027,2.1966,2.1948,2.1901,2.189,2.1876,2.1868,2.1879,2.1829,2.1824,2.182,2.1805,2.1799,2.187,2.187,2.1871,2.1871,0,2.2153,2.2122,2.2098,2.2065,2.2045,2.2012,2.2,2.198,2.1978,2.1968,2.1928,2.1907,2.1876,2.1865,2.1861,2.1818,2.1824,2.1831,2.1847,2.1813,2.1799,2.1793,2.1869,2.1869,2.187,2.187,0,0,2.2096,2.2062,2.2053,2.204,2.2011,2.1987,2.1956,2.1926,2.1911,2.1887,2.1862,2.182,2.1828,2.181,2.1805,2.1785,2.1751,2.1795,2.1794,2.1789,2.1705,2.1701,2.1695,2.1752,2.1751,2.175,2.1708,0,2.2049,2.1993,2.1986,2.1936,2.1909,2.1911,2.1884,2.1864,2.1854,2.183,2.1819,2.1791,2.1801,2.1791,2.1771,2.1759,2.1734,2.1762,2.173,2.1729,2.1738,2.1687,2.1682,2.1644,2.1702,2.1701,2.1701,0,2.1985,2.1962,2.191,2.1888,2.1877,2.1852,2.1826,2.1803,2.1781,2.1776,2.1757,2.1756,2.1725,2.1742,2.17,2.1719,2.1706,2.1698,2.1696,2.1694,2.1713,2.1685,2.1631,2.1626,2.1692,2.1692,2.1693,0,2.1953,2.1907,2.1872,2.186,2.1832,2.1816,2.1804,2.1783,2.1767,2.1745,2.1734,2.1708,2.1694,2.1675,2.1667,2.1679,2.1626,2.1642,2.1622,2.1623,2.1611,2.1612,2.1556,2.16,2.16,2.16,2.1601,0,2.1901,2.187,2.1857,2.1835,2.1801,2.1794,2.176,2.1749,2.1732,2.1709,2.1708,2.1687,2.1677,2.1654,2.1648,2.1616,2.1609,2.1605,2.1604,2.1605,2.1606,2.1597,2.16,2.1599,2.1599,2.16,2.16,0,2.1858,2.1848,2.181,2.1788,2.1782,2.1758,2.174,2.1719,2.171,2.1681,2.1674,2.166,2.1634,2.1624,2.1591,2.1587,2.1551,2.1551,2.1558,2.1558,2.154,2.1543,2.1477,2.1469,2.1517,2.1517,2.1516,0,2.1827,2.1803,2.178,2.1765,2.1753,2.1728,2.1712,2.1704,2.1688,2.1664,2.1647,2.1621,2.1599,2.1558,2.1545,2.1521,2.1522,2.15,2.1518,2.1522,2.1524,2.1526,2.1525,2.1497,2.1497,2.1496,2.1496,0,2.1773,2.177,2.1746,2.1723,2.1704,2.1685,2.1666,2.1653,2.1644,2.1626,2.1599,2.1583,2.1551,2.1526,2.1502,2.149,2.1492,2.1491,2.1485,2.1488,2.1494,2.1492,2.1551,2.1492,2.1493,2.1493,2.1493,2.1493,2.1736,2.1716,2.1698,2.1673,2.1658,2.1642,2.1622,2.1612,2.159,2.1564,2.1561,2.1533,2.1515,2.1483,2.1471,2.145,2.1456,2.1447,2.1445,2.1443,2.1443,2.1496,2.1445,2.1445,2.1445,2.1445,2.1445,0,2.1683,2.1672,2.165,2.1625,2.1606,2.161,2.159,2.1574,2.155,2.1533,2.1513,2.1484,2.146,2.1447,2.1424,2.141,2.141,2.1404,2.1406,2.1404,2.1438,2.1446,2.1404,2.1404,2.1404,2.1404,2.1404,2.1404,2.1654,2.1622,2.1617,2.1579,2.1568,2.1541,2.153,2.1515,2.1502,2.147,2.1451,2.1443,2.1428,2.1404,2.1383,2.138,2.1372,2.1366,2.1363,2.1396,2.1401,2.1405,2.1412,2.1364,2.1364,2.1331,2.133,2.133]},{"header":{"parameterUnit":"m.s-1","parameterCategory":1,"la1":30.2991,"la2":30.254,"lo1":-89.0895,"lo2":-89.0444,"dy":0.0017,"dx":0.0017,"nx":28,"ny":28,"refTime":"2026-01-02T03:00:00:Z","depth":0,"parameterNumber":3,"parameterNumberName":"V-component_of_WINDS"},"data":[0,0,0,0,0,0,0,0,0,0,0,0,0,0,0,0,0,0,0,0,0,0,0,0,0,0,0,0,0,0,0,0,0,0,0,0,0,0,0,0,0,0,0,0,0,0,0,0,0,0,0,0,0,0,0,0,0,0,1.6827,1.6827,0,1.6845,1.6845,1.6845,1.6829,1.6829,1.6828,1.6828,1.6844,1.6845,1.6846,0,0,0,0,0,0,0,0,0,0,0,0,0,1.678,1.6781,1.6827,1.6827,1.6828,1.6845,1.6845,1.6845,1.683,1.6829,1.6828,1.6827,1.6844,1.6845,1.6847,0,0,0,0,0,0,0,0,0,0,0,0,0,1.6799,1.6781,1.6827,1.6822,1.6822,1.6845,1.6845,1.6845,1.683,1.6829,1.6828,1.6827,1.6844,1.6845,1.6847,1.6875,0,0,1.6851,1.6852,0,0,0,0,0,0,0,0,1.6798,1.6801,1.6823,1.6822,1.6822,1.6834,1.6834,1.6855,1.683,1.6827,1.6828,1.6827,1.6842,1.6843,1.6849,1.6876,1.6877,1.6852,1.6853,1.6853,1.6854,0,0,0,0,0,0,0,1.6797,1.68,1.6834,1.6823,1.6823,1.6819,1.682,1.6838,1.6839,1.6827,1.6826,1.6828,1.6841,1.6847,1.6849,1.6877,1.6852,1.6853,1.6854,1.6855,1.693,1.6931,0,0,0,0,0,0,1.6796,1.6799,1.6834,1.6835,1.6808,1.682,1.6822,1.6831,1.6839,1.6839,1.6829,1.6827,1.6845,1.6847,1.6849,1.6885,1.6853,1.6855,1.6856,1.6929,1.6931,1.6932,0,0,0,0,0,0,1.6795,1.6799,1.6833,1.6817,1.6821,1.6822,1.6832,1.6832,1.6838,1.6841,1.6841,1.6835,1.6844,1.6847,1.6869,1.6885,1.6855,1.6857,1.6928,1.693,1.6931,1.6954,0,0,0,0,0,0,1.6794,1.6799,1.681,1.6817,1.6821,1.6853,1.6833,1.6833,1.6841,1.6839,1.6846,1.6846,1.6844,1.6867,1.6871,1.6887,1.6858,1.6927,1.6929,1.6931,1.6952,1.6957,1.696,0,0,0,0,0,1.6792,1.6815,1.6811,1.6815,1.6835,1.6854,1.6856,1.6853,1.6842,1.6853,1.6855,1.6846,1.6882,1.687,1.6874,1.689,1.6926,1.6928,1.693,1.695,1.6956,1.696,0,0,0,0,0,0,1.6809,1.6816,1.6811,1.6837,1.6845,1.6851,1.6865,1.6859,1.6869,1.6867,1.6863,1.6864,1.6888,1.6891,1.6877,1.6919,1.6902,1.6906,1.6916,1.6921,1.6925,1.6924,1.6859,0,0,0,0,0,1.6816,1.6831,1.6836,1.6858,1.6863,1.6863,1.6871,1.6868,1.6876,1.6879,1.6882,1.689,1.6904,1.6912,1.6924,1.6952,1.6954,1.6966,1.697,1.6973,1.6976,1.6993,1.6998,1.694,1.694,1.694,0,0,1.683,1.6836,1.6845,1.6862,1.6868,1.6883,1.6866,1.6883,1.6894,1.6881,1.6903,1.6906,1.6914,1.694,1.6951,1.6943,1.6993,1.6976,1.6979,1.698,1.6996,1.7001,1.7006,1.6941,1.6941,1.6941,0,0,1.6865,1.687,1.689,1.6897,1.6906,1.6906,1.6911,1.6918,1.692,1.6942,1.6933,1.6946,1.6969,1.6975,1.6982,1.702,1.7012,1.7024,1.7045,1.7061,1.7066,1.707,1.7085,1.709,1.7027,1.7027,1.7027,0,1.6881,1.6904,1.6901,1.6919,1.6927,1.6917,1.6937,1.6943,1.6956,1.6962,1.6952,1.6982,1.6986,1.7014,1.7023,1.7028,1.7034,1.7023,1.7065,1.7069,1.7073,1.7087,1.7093,1.7028,1.7028,1.7028,1.7028,0,1.6925,1.6941,1.6956,1.697,1.6979,1.6998,1.6998,1.7008,1.7004,1.7005,1.7028,1.7034,1.7047,1.7053,1.705,1.7081,1.7076,1.7066,1.7049,1.708,1.7093,1.7099,1.703,1.703,1.7029,1.7029,0,0,1.697,1.6982,1.6988,1.6995,1.7005,1.7017,1.7036,1.705,1.7059,1.7068,1.7084,1.7104,1.7096,1.7103,1.71,1.7114,1.7145,1.7102,1.7102,1.7111,1.7181,1.719,1.7196,1.714,1.7141,1.7142,1.7181,0,1.7005,1.7039,1.7037,1.7068,1.7084,1.7075,1.7091,1.7099,1.7101,1.7115,1.7116,1.7131,1.7118,1.7123,1.7136,1.7138,1.7159,1.7135,1.7156,1.7156,1.7155,1.7203,1.7211,1.7248,1.7186,1.7187,1.7188,0,1.7051,1.7063,1.7097,1.7106,1.7112,1.7127,1.7141,1.7153,1.7162,1.7163,1.7172,1.7166,1.7186,1.7168,1.7195,1.7179,1.7187,1.719,1.7191,1.7194,1.7175,1.7208,1.726,1.7266,1.7195,1.7195,1.7194,0,1.7083,1.7107,1.713,1.7136,1.7147,1.7158,1.7163,1.7171,1.718,1.7191,1.7198,1.7211,1.7219,1.7229,1.7228,1.7215,1.7256,1.7238,1.7258,1.7258,1.7267,1.7267,1.7323,1.727,1.727,1.727,1.727,0,1.7123,1.7144,1.7145,1.7159,1.7183,1.718,1.7204,1.7207,1.7215,1.723,1.7222,1.7237,1.7234,1.7248,1.7247,1.7271,1.7274,1.7275,1.7275,1.7277,1.7277,1.7283,1.7281,1.7272,1.7271,1.7271,1.7271,0,1.7162,1.7163,1.7189,1.7197,1.72,1.7217,1.7224,1.7238,1.724,1.7259,1.7264,1.7266,1.7283,1.7283,1.7301,1.7301,1.733,1.7326,1.7327,1.7327,1.7347,1.7346,1.741,1.7419,1.7359,1.736,1.736,0,1.7188,1.7205,1.7215,1.7226,1.7232,1.7247,1.7257,1.7255,1.7266,1.7278,1.7291,1.7307,1.732,1.7347,1.7351,1.7365,1.7363,1.7384,1.7365,1.7367,1.7365,1.7364,1.7367,1.7388,1.7389,1.7389,1.739,0,1.7235,1.7235,1.725,1.7265,1.7277,1.7289,1.73,1.7308,1.7308,1.732,1.7337,1.7348,1.7367,1.7384,1.7399,1.7403,1.7397,1.7396,1.7401,1.7404,1.7405,1.7406,1.7339,1.7394,1.7394,1.7394,1.7393,1.7393,1.727,1.7284,1.7295,1.7312,1.732,1.733,1.7345,1.7348,1.7363,1.738,1.7378,1.7398,1.7407,1.7426,1.7432,1.7448,1.7441,1.7448,1.7451,1.7453,1.7456,1.7401,1.745,1.745,1.745,1.745,1.745,0,1.7317,1.7324,1.734,1.7356,1.7369,1.7362,1.7374,1.7386,1.7404,1.7414,1.7427,1.7448,1.7464,1.7469,1.7485,1.7497,1.7495,1.7502,1.7501,1.7503,1.7461,1.7455,1.7503,1.7503,1.7503,1.7503,1.7503,1.7503,1.7344,1.7369,1.7371,1.74,1.7406,1.7427,1.7434,1.7444,1.7452,1.7476,1.749,1.7494,1.7502,1.7519,1.7534,1.7535,1.7542,1.755,1.755,1.7511,1.7506,1.7501,1.7495,1.7551,1.7551,1.7591,1.7591,1.7592]}]]